Temperature
20 20 20 20 18 17 18 19 19 19 19 19 19 19 18 17 18 18 17 18 18 17 17 17 17 17 17 17 17 17 17 17 17 17 17 17 17 17 17 17 17 17 17 17 17 17 17 17 17
20 20 20 20 17 17 18 19 19 19 19 19 19 18 18 17 17 17 17 17 17 17 17 17 17 17 17 17 17 17 17 17 17 17 17 17 17 17 17 17 17 17 17 17 17 17 17 17 17
20 20 20 17 17 18 19 19 19 19 19 19 18 18 17 17 17 17 18 18 17 17 17 17 17 17 17 17 17 17 17 17 17 17 17 17 17 17 17 17 17 17 17 17 17 17 17 17 17
20 20 20 17 18 18 19 19 19 19 19 19 18 17 17 17 18 18 18 17 17 17 17 17 17 17 17 17 17 17 17 17 17 17 17 17 17 17 17 17 17 17 17 17 17 17 17 17 17
20 20 17 17 18 19 18 19 19 19 19 18 18 17 17 17 18 18 18 17 17 17 17 17 17 17 17 17 17 17 17 17 17 17 17 16 16 16 16 16 16 16 16 17 17 16 16 16 16
21 18 17 17 18 19 19 19 19 18 18 18 18 17 17 17 17 17 17 17 17 17 17 17 17 17 17 17 17 17 17 17 17 16 16 16 16 16 16 16 16 16 16 16 16 16 16 16 16
20 16 17 18 18 19 19 19 19 18 18 18 18 17 17 17 17 17 17 17 17 17 17 17 17 17 17 17 16 16 16 16 16 16 16 16 16 16 16 16 16 16 16 16 16 16 16 16 16
20 17 18 18 18 19 19 19 19 18 18 18 18 17 16 17 17 17 17 17 17 17 17 17 17 17 17 16 16 16 16 16 16 16 16 16 16 16 16 16 16 16 16 16 16 16 16 16 16
20 17 17 18 18 19 19 19 19 18 18 18 17 17 17 17 17 17 17 17 17 17 17 17 17 17 17 17 16 16 16 16 16 16 16 16 16 16 16 16 16 16 16 16 16 16 16 16 16
20 17 19 19 18 18 19 19 18 18 17 17 17 17 17 17 17 17 17 17 17 17 17 17 17 17 17 17 17 16 16 16 16 16 16 16 16 16 16 16 16 16 16 16 16 16 16 16 16
19 18 19 19 19 19 19 19 19 18 17 17 17 17 17 17 17 17 17 17 17 17 17 17 17 17 17 17 17 16 16 16 16 16 16 16 16 16 16 16 16 16 16 16 16 16 16 16 15
19 19 19 20 20 20 19 19 18 18 18 18 18 17 17 17 17 17 17 17 17 17 17 17 17 17 16 16 16 16 16 16 16 16 16 16 16 16 16 15 15 15 16 16 16 16 15 15 15
19 19 20 20 20 19 19 18 18 17 18 18 18 17 17 17 17 17 17 17 17 17 17 17 17 17 16 16 16 16 16 16 16 16 16 16 16 16 16 15 15 15 15 15 15 15 15 15 15
19 19 19 20 20 19 18 18 18 17 18 17 17 17 17 17 17 17 17 17 17 17 17 17 17 16 16 16 16 16 16 16 16 16 16 16 16 16 15 15 15 15 15 15 15 15 15 15 15
20 19 19 19 19 19 19 18 17 17 17 17 17 17 17 17 17 17 17 17 17 17 17 16 16 16 16 16 16 16 16 16 16 16 16 16 16 16 15 15 15 15 15 15 15 15 15 15 15
19 18 18 19 19 19 19 18 17 17 17 17 17 17 17 17 17 17 17 17 17 17 17 17 16 16 16 16 16 16 16 16 16 16 16 16 16 15 15 15 15 15 15 15 15 15 15 15 14
18 18 18 18 19 18 18 17 17 17 17 16 16 17 17 17 17 17 17 17 17 17 17 17 17 16 16 16 16 16 16 16 16 16 16 15 15 15 15 15 15 15 15 15 15 15 15 14 14
18 18 18 18 18 18 17 17 16 16 16 16 16 16 17 17 17 17 17 17 17 17 17 17 16 16 16 16 16 16 16 16 16 15 15 15 15 15 15 15 15 15 15 15 15 15 14 14 14
19 18 18 18 19 18 17 16 16 16 16 16 16 16 17 17 17 17 17 17 17 17 17 16 16 16 16 16 16 16 16 16 15 15 15 15 15 15 15 15 15 15 15 14 14 14 14 14 14
19 18 18 18 19 18 17 16 16 16 16 16 16 16 17 17 17 17 17 17 17 17 17 17 16 16 16 16 16 16 16 15 15 15 15 15 15 15 15 14 14 14 14 14 14 14 14 14 14
19 18 18 18 18 18 18 17 16 16 16 16 16 17 17 17 17 17 17 17 17 17 17 17 16 16 16 16 16 16 15 15 15 15 15 15 15 15 14 14 14 14 14 14 14 14 14 14 14
18 19 19 18 17 16 17 16 16 16 15 15 16 17 17 17 17 17 17 17 17 17 17 17 17 16 16 16 16 16 15 15 15 15 15 15 15 14 14 14 14 14 14 14 14 14 14 14 14
19 19 18 18 17 16 17 16 16 15 15 15 16 17 17 18 18 18 17 17 17 17 17 17 17 16 16 16 16 15 15 15 15 15 15 15 15 14 14 14 14 14 14 14 14 14 13 13 13
19 18 17 15 16 16 17 16 16 15 16 16 16 17 18 18 18 18 17 17 17 17 17 17 17 16 16 16 16 15 15 15 15 15 15 15 15 14 14 14 14 14 14 14 14 13 13 13 13
18 17 16 16 15 16 16 16 16 16 16 16 16 17 18 18 18 17 17 17 17 17 17 17 17 16 16 16 16 15 15 15 15 15 15 15 15 14 14 14 14 14 14 14 13 13 13 13 13
17 17 16 16 16 15 16 16 16 17 17 17 17 17 17 17 17 17 17 17 17 17 17 17 17 16 16 16 16 15 15 15 15 15 15 15 15 14 14 14 14 14 14 13 13 13 13 13 13
17 16 16 15 16 16 15 16 16 17 16 16 16 16 16 17 17 17 17 17 17 17 17 17 16 16 16 16 16 15 15 15 15 15 15 14 14 14 14 14 14 14 13 14 13 13 13 13 13
17 15 14 15 16 15 16 16 15 16 16 15 15 15 16 17 17 17 17 17 17 17 17 16 16 16 16 16 16 15 15 15 15 15 15 14 14 14 14 14 14 14 14 13 13 13 13 13 13
16 16 14 14 14 15 15 15 16 16 16 15 15 16 16 17 17 17 17 17 17 17 17 16 16 16 16 15 15 15 15 15 15 15 15 14 14 14 14 14 14 14 13 13 13 13 13 13 13
17 16 14 15 14 13 14 15 16 15 15 15 16 16 17 17 17 17 17 17 17 17 16 16 16 16 16 15 15 15 15 15 15 15 15 14 14 14 14 14 14 13 13 13 13 13 13 13 13
Wind_Speed
4 2 3 4 5 5 3 2 1 2 3 2 4 6 6 4 2 2 1 2 2 2 2 4 7 8 8 9 9 10 10 10 11 11 12 12 11 11 12 11 11 11 11 11 11 10 11 11 11
1 2 4 5 5 4 2 2 1 2 4 4 5 5 6 4 3 3 1 1 3 3 3 4 7 8 8 9 9 10 11 11 11 12 12 12 12 11 11 11 11 11 12 12 13 13 12 12 11
1 3 4 5 4 3 2 1 2 3 4 2 4 5 4 3 2 2 1 3 3 3 4 4 7 8 8 9 9 9 10 10 11 11 11 12 12 11 11 11 11 12 12 12 12 13 13 13 12
3 4 5 6 5 1 2 1 3 4 4 5 4 5 3 3 1 3 4 4 4 3 3 4 7 8 8 8 9 9 9 10 10 10 10 11 10 10 11 11 11 11 12 12 12 12 13 13 13
4 4 6 5 3 2 1 0 2 3 3 4 4 4 3 4 4 6 6 5 5 3 4 5 6 7 8 8 8 8 9 9 9 9 9 9 10 10 10 11 11 11 12 11 12 12 13 13 13
4 5 5 3 2 2 2 2 3 4 4 3 4 4 2 2 5 5 5 5 4 4 4 4 5 6 7 7 7 8 8 8 9 9 9 9 9 9 9 9 10 11 11 11 12 13 13 13 13
4 5 4 3 2 2 2 3 4 4 4 3 3 4 2 1 3 5 5 5 5 5 5 5 5 4 5 6 7 7 7 8 8 8 8 8 8 8 9 9 9 10 11 11 12 13 13 13 13
4 5 4 2 3 1 1 2 3 4 3 3 3 5 3 3 4 6 6 6 5 5 5 5 5 5 5 5 5 6 6 7 8 8 8 8 8 8 8 9 9 10 11 12 12 13 13 13 13
4 5 3 3 4 2 1 3 3 3 5 4 3 2 3 7 7 7 5 5 4 3 3 4 4 4 4 4 5 6 6 7 7 7 8 8 8 8 7 8 9 10 11 12 12 13 13 13 13
5 4 2 2 4 4 3 3 3 4 4 3 4 5 7 8 8 6 5 3 2 1 2 2 2 3 4 4 5 5 6 7 7 7 7 7 7 7 7 9 10 10 11 12 13 13 12 12 11
3 4 1 2 3 5 5 4 2 5 2 2 4 7 7 7 6 5 4 3 2 1 1 1 1 2 3 3 4 4 4 5 5 6 6 6 6 7 8 8 8 9 10 10 11 11 10 10 9
3 2 2 3 3 4 5 4 4 3 1 3 6 8 7 7 6 5 4 3 2 1 0 1 1 2 2 3 3 3 3 4 4 4 5 5 4 5 5 5 7 7 8 8 9 8 10 10 11
3 2 3 4 6 6 7 5 4 2 3 5 7 7 6 6 4 3 3 2 2 1 1 1 2 2 2 3 2 3 2 3 3 4 5 5 4 3 4 5 6 6 7 8 7 8 8 8 9
2 3 3 3 4 3 6 3 3 0 4 6 6 5 5 5 4 3 2 2 2 2 1 1 2 2 3 2 2 2 2 3 3 4 4 5 5 4 4 4 5 6 7 8 8 7 7 6 7
3 4 4 3 2 2 6 3 0 1 5 5 4 4 3 3 3 3 4 4 3 3 2 2 3 2 3 2 2 3 3 3 3 3 4 5 5 6 5 4 4 5 7 8 8 8 7 6 6
4 4 1 2 1 2 4 2 2 3 6 5 3 3 3 2 3 3 4 4 3 3 2 2 3 3 3 3 3 3 3 4 4 4 5 5 6 7 6 4 4 5 7 7 5 4 5 5 5
4 1 1 2 1 3 3 3 2 4 6 5 4 4 3 3 3 3 3 3 3 3 3 3 3 4 4 3 3 4 4 4 4 5 4 5 6 7 7 5 4 6 6 5 4 4 4 5 5
2 1 2 2 1 4 3 4 2 4 5 5 4 4 4 4 5 3 3 3 3 3 3 3 3 3 4 4 3 3 3 3 4 4 4 4 5 6 7 5 5 6 4 4 4 5 4 3 4
3 2 2 3 2 3 4 5 4 4 5 5 5 5 5 5 4 2 3 4 4 3 3 3 4 3 3 3 2 2 1 1 2 2 3 3 4 5 6 5 4 4 4 4 4 4 5 3 3
2 1 2 2 0 3 3 4 3 4 6 7 8 8 7 6 3 3 3 4 4 4 4 3 4 4 3 3 2 2 2 1 1 2 2 2 3 4 5 5 4 4 4 4 4 4 3 2 2
2 4 4 2 2 3 1 4 3 3 4 4 5 6 6 8 7 5 4 4 5 5 5 5 5 4 4 3 3 3 3 3 2 1 1 1 2 3 4 5 5 4 4 4 4 4 4 2 0
3 3 4 3 2 1 1 3 6 3 3 5 7 7 8 8 7 6 6 5 6 6 5 5 5 4 4 4 4 4 3 2 2 1 0 1 2 2 4 5 5 4 3 4 3 3 2 3 2
4 1 2 2 3 1 1 1 6 2 5 7 8 9 8 8 8 8 7 7 6 6 5 5 5 4 4 5 5 5 3 2 1 1 1 1 1 1 3 4 4 4 3 3 3 3 2 2 3
3 5 5 5 4 1 3 3 5 4 6 6 7 8 8 7 7 6 5 5 4 4 5 5 5 4 4 5 5 5 5 4 3 2 1 0 0 0 1 3 3 3 3 3 3 3 2 2 2
4 5 3 4 3 4 2 2 6 6 5 6 7 7 7 7 7 6 6 6 5 5 5 5 6 5 4 5 5 5 5 5 5 4 4 2 1 1 2 2 3 2 3 3 3 3 2 2 2
3 6 6 4 4 4 2 4 6 5 4 3 3 4 5 5 6 7 7 7 7 6 6 6 6 5 5 5 5 4 4 4 4 4 4 4 3 3 3 3 3 3 3 3 3 2 2 2 2
4 3 5 5 2 1 4 5 6 3 5 5 3 2 4 5 5 6 6 6 6 6 6 6 6 5 5 5 4 4 4 5 5 4 3 3 3 2 3 3 3 2 3 3 3 2 2 2 2
4 7 5 4 3 3 4 4 4 5 4 3 2 0 2 3 4 4 4 5 5 5 5 4 5 5 5 5 4 4 4 4 4 3 4 4 3 3 4 4 3 3 3 3 3 2 2 2 1
3 3 4 4 4 4 3 5 4 5 3 2 2 2 3 4 3 3 3 3 3 3 3 4 4 3 3 3 4 4 3 3 3 4 4 4 4 4 5 5 4 4 3 3 3 3 3 3 2
3 4 6 4 3 3 3 6 4 3 2 2 2 2 2 2 2 2 2 3 3 3 3 3 3 3 3 3 3 3 3 2 3 4 4 4 4 4 5 5 4 4 4 3 4 4 3 4 3
Wind_Direction
347 41 76 56 55 55 58 358 46 52 59 46 64 76 90 84 96 123 325 89 92 85 54 80 87 86 86 85 85 85 89 88 89 88 87 88 88 88 86 84 80 77 76 72 68 79 84 82 81
15 59 55 61 78 74 8 327 90 107 135 125 67 67 73 66 64 95 77 99 100 94 76 87 93 89 84 84 85 86 90 90 89 88 86 85 86 86 83 82 79 76 75 72 71 80 85 83 84
60 53 75 70 83 128 151 212 128 97 98 90 73 56 70 71 88 126 169 129 97 81 77 93 94 92 86 83 82 88 91 90 89 88 87 85 84 84 81 80 79 76 75 75 74 77 81 84 86
73 47 56 70 76 65 153 168 138 119 69 52 87 70 57 34 121 142 130 114 103 81 82 97 98 93 87 84 82 85 89 89 87 86 85 84 85 83 81 78 76 74 73 73 74 77 80 84 85
61 74 64 61 48 14 25 90 95 85 61 47 78 84 42 5 81 111 113 101 101 84 74 86 97 95 91 88 82 82 86 86 85 83 82 82 84 84 79 75 73 70 70 71 75 79 81 82 84
52 65 78 84 46 20 13 30 83 80 83 76 80 89 52 45 92 103 97 88 84 80 67 72 87 89 85 80 78 80 85 84 82 80 78 79 82 80 76 75 73 71 68 70 74 81 82 82 82
91 83 101 117 94 32 30 49 83 91 86 81 98 97 88 80 100 99 90 80 68 59 55 47 52 66 74 74 75 77 79 79 79 79 77 76 77 76 75 75 76 72 70 72 76 81 81 84 84
112 97 87 100 116 92 36 57 75 79 89 77 88 122 162 174 114 93 82 69 63 54 46 41 40 44 48 56 68 72 72 70 71 72 69 67 66 65 66 67 72 72 70 70 74 81 80 81 83
83 77 113 172 159 163 113 89 61 57 82 62 61 102 132 125 112 98 81 61 53 51 37 38 39 37 42 45 52 56 58 56 56 59 60 54 51 52 56 60 67 71 70 69 71 75 76 76 79
76 105 183 194 168 148 116 105 123 82 65 60 65 69 97 112 119 119 116 115 92 34 25 45 37 29 39 43 44 43 49 53 55 57 56 55 53 54 58 59 65 70 68 68 70 72 71 68 65
90 134 152 113 140 131 113 96 93 116 94 164 147 135 124 120 126 135 143 152 175 198 34 59 54 36 50 47 47 42 46 50 53 55 56 63 59 54 53 56 55 62 67 68 67 68 68 68 65
87 71 113 120 120 113 115 111 87 86 166 152 142 140 135 135 145 158 167 171 151 123 97 77 99 75 58 59 53 51 49 48 51 57 68 78 71 60 56 63 62 65 72 75 72 74 71 69 66
73 70 65 93 97 101 97 89 104 62 76 105 116 125 138 146 156 165 166 158 145 159 161 102 110 110 81 64 53 59 54 57 58 65 73 88 89 79 73 71 71 73 79 81 79 76 73 68 62
112 91 71 79 96 100 102 81 90 77 105 112 127 141 151 158 161 149 156 181 183 193 194 131 111 113 101 90 69 64 73 79 77 75 86 99 104 100 89 78 75 74 82 86 84 81 78 71 68
95 77 36 27 84 121 108 54 315 175 126 129 144 156 161 173 164 170 185 191 197 197 186 159 141 111 111 105 80 74 80 91 84 77 92 101 106 107 101 91 82 84 92 92 89 81 78 72 66
65 68 28 310 120 136 127 241 262 150 142 152 168 173 179 195 198 200 194 188 188 173 167 173 146 133 129 112 88 79 87 90 88 86 88 96 106 109 105 97 90 97 98 94 90 81 77 69 64
44 81 251 299 191 135 146 229 252 154 157 170 186 194 197 204 219 206 190 183 175 166 155 145 131 139 140 117 94 83 84 84 87 88 87 97 107 114 112 106 104 105 98 88 93 78 86 85 75
219 217 249 252 235 140 169 234 236 177 175 188 196 202 204 212 226 208 190 181 169 159 145 137 125 124 119 101 88 73 64 60 66 78 87 101 112 117 114 109 109 110 97 85 87 90 75 86 84
171 187 249 261 228 160 200 239 242 195 191 203 212 214 212 223 235 204 189 167 150 146 141 146 137 139 128 115 116 107 87 50 45 56 82 100 114 122 121 117 115 115 111 114 110 101 91 79 85
161 188 266 300 313 168 210 264 258 196 208 209 210 213 213 216 217 204 190 169 166 167 166 165 163 164 161 150 141 131 125 99 59 36 55 88 113 126 132 130 133 128 118 114 115 109 104 102 82
208 200 219 230 34 60 76 321 286 244 216 216 215 213 210 207 206 203 192 187 179 179 183 184 180 175 171 148 109 84 65 51 39 28 8 16 99 126 135 140 138 141 142 148 149 140 130 143 85
255 235 194 168 118 299 103 288 287 259 248 231 225 215 214 212 204 198 195 193 196 198 187 182 179 175 167 153 146 146 153 165 211 198 204 22 83 118 134 141 141 147 149 155 168 155 143 140 146
213 106 108 118 136 38 354 206 288 309 256 248 232 221 216 209 201 198 197 199 201 194 184 181 173 172 166 164 168 162 164 179 139 95 103 52 39 85 127 144 144 149 155 164 164 153 153 151 155
133 72 59 52 74 328 252 193 286 254 241 254 235 222 212 201 200 201 197 184 188 182 178 171 172 181 176 175 175 175 176 168 152 154 166 192 17 34 130 144 148 155 159 170 171 165 166 162 151
87 90 35 3 10 259 263 201 258 266 254 243 238 221 204 191 187 191 191 187 189 183 181 177 177 187 184 183 189 190 189 182 185 187 188 189 194 216 208 161 159 162 167 167 160 160 170 170 166
159 143 158 197 223 278 310 239 262 289 303 282 238 197 176 178 183 191 195 194 193 190 186 181 187 193 188 193 201 196 191 189 196 195 189 194 202 207 194 171 170 169 162 159 151 152 172 160 162
134 158 164 139 161 269 286 287 304 344 7 17 38 115 167 180 184 195 196 192 192 190 190 188 192 196 197 200 202 196 196 196 201 198 190 197 202 196 179 173 170 169 161 155 142 141 155 150 162
136 141 105 128 161 244 291 287 272 301 321 351 10 200 198 188 185 187 193 194 194 194 191 182 193 201 204 196 195 198 202 204 202 189 197 202 206 192 176 177 172 165 156 150 142 141 152 144 155
103 106 112 123 147 163 255 276 238 231 246 258 278 261 200 184 189 189 184 177 166 162 166 178 187 195 204 200 198 193 197 195 190 197 204 201 198 189 191 188 179 175 174 166 160 168 159 156 154
165 170 150 156 207 174 187 267 281 247 245 223 253 266 212 185 176 174 165 144 143 151 158 174 188 195 205 194 192 195 190 176 191 209 209 197 197 196 195 184 180 182 183 177 179 186 178 175 176
Height
1505 1504 1505 1507 1510 1522 1525 1522 1518 1518 1518 1519 1518 1519 1521 1524 1527 1532 1529 1526 1527 1527 1526 1526 1526 1525 1525 1525 1525 1525 1525 1524 1524 1524 1525 1525 1525 1525 1525 1525 1525 1525 1525 1523 1520 1518 1522 1525 1526
1505 1505 1507 1508 1519 1532 1529 1521 1519 1518 1519 1519 1520 1521 1522 1524 1526 1527 1527 1527 1528 1528 1528 1528 1528 1527 1527 1527 1527 1527 1527 1526 1526 1526 1527 1527 1527 1527 1527 1527 1527 1527 1526 1525 1521 1520 1524 1527 1528
1506 1507 1508 1512 1523 1530 1527 1520 1519 1519 1519 1520 1521 1523 1524 1526 1527 1528 1528 1529 1529 1529 1529 1529 1529 1529 1529 1529 1529 1529 1529 1529 1529 1529 1529 1529 1529 1529 1529 1529 1529 1529 1528 1528 1527 1526 1528 1529 1529
1507 1509 1510 1518 1524 1523 1521 1519 1519 1519 1520 1521 1523 1525 1527 1528 1529 1529 1530 1530 1530 1531 1531 1531 1531 1531 1531 1531 1531 1531 1531 1531 1531 1531 1531 1531 1531 1531 1531 1531 1531 1530 1530 1530 1530 1530 1530 1531 1532
1508 1509 1517 1525 1524 1522 1520 1519 1519 1520 1522 1523 1524 1526 1528 1530 1530 1531 1531 1532 1532 1533 1533 1533 1533 1533 1533 1533 1533 1533 1533 1533 1533 1533 1533 1533 1533 1533 1533 1533 1533 1532 1532 1532 1532 1532 1533 1533 1534
1509 1511 1525 1531 1526 1522 1521 1520 1520 1521 1523 1524 1525 1527 1530 1531 1531 1532 1533 1533 1534 1534 1534 1535 1535 1535 1535 1535 1535 1535 1535 1535 1535 1535 1535 1535 1535 1535 1535 1535 1535 1534 1534 1534 1534 1535 1535 1536 1536
1511 1517 1526 1528 1528 1525 1523 1522 1522 1523 1524 1526 1526 1528 1531 1532 1533 1533 1534 1535 1536 1536 1536 1536 1537 1537 1537 1537 1537 1537 1537 1537 1537 1536 1536 1536 1537 1537 1537 1537 1537 1537 1537 1537 1537 1537 1537 1538 1538
1511 1517 1525 1528 1528 1527 1524 1523 1524 1524 1526 1527 1528 1529 1531 1532 1533 1534 1535 1536 1537 1538 1538 1538 1538 1539 1539 1539 1539 1539 1539 1539 1539 1539 1538 1538 1538 1539 1539 1539 1539 1539 1539 1539 1539 1539 1539 1540 1540
1513 1522 1529 1527 1526 1525 1524 1524 1526 1526 1527 1528 1528 1530 1531 1532 1534 1535 1536 1537 1538 1539 1539 1540 1540 1540 1541 1541 1541 1541 1541 1541 1541 1541 1541 1540 1540 1540 1541 1541 1541 1541 1541 1541 1541 1541 1541 1542 1542
1514 1525 1524 1521 1521 1522 1524 1525 1526 1527 1528 1529 1530 1530 1532 1533 1534 1535 1537 1538 1539 1540 1540 1541 1541 1542 1542 1542 1543 1543 1543 1543 1543 1543 1543 1542 1542 1543 1543 1543 1543 1543 1543 1543 1543 1543 1544 1544 1544
1515 1521 1520 1520 1521 1522 1523 1525 1526 1528 1530 1530 1530 1531 1533 1534 1535 1536 1538 1539 1540 1541 1542 1542 1543 1543 1544 1544 1544 1544 1544 1544 1544 1544 1544 1544 1544 1544 1544 1544 1545 1545 1545 1545 1545 1545 1545 1546 1546
1518 1519 1519 1521 1521 1522 1524 1526 1528 1529 1530 1530 1531 1532 1533 1534 1536 1537 1538 1540 1541 1542 1543 1543 1544 1545 1545 1545 1546 1546 1546 1546 1546 1546 1546 1546 1546 1546 1546 1546 1546 1547 1547 1547 1547 1547 1547 1547 1547
1519 1520 1521 1522 1522 1524 1525 1527 1529 1530 1531 1531 1532 1534 1534 1536 1537 1538 1540 1541 1542 1542 1543 1544 1545 1546 1546 1547 1547 1547 1547 1547 1547 1547 1547 1548 1548 1548 1548 1548 1548 1548 1548 1549 1549 1549 1549 1549 1549
1520 1521 1522 1523 1524 1525 1527 1529 1530 1531 1532 1533 1534 1535 1535 1537 1538 1539 1540 1541 1542 1543 1544 1545 1546 1547 1547 1548 1548 1548 1548 1549 1549 1549 1549 1549 1549 1549 1549 1549 1549 1549 1550 1550 1550 1550 1550 1550 1550
1521 1523 1525 1524 1524 1526 1528 1532 1532 1532 1533 1533 1534 1535 1536 1537 1539 1540 1541 1542 1543 1544 1545 1545 1546 1547 1548 1549 1549 1549 1549 1550 1550 1550 1550 1550 1550 1550 1550 1550 1550 1551 1551 1551 1551 1551 1551 1551 1551
1523 1528 1533 1527 1525 1527 1531 1537 1532 1532 1533 1533 1534 1536 1537 1538 1539 1540 1541 1542 1544 1544 1545 1546 1547 1548 1548 1549 1550 1550 1550 1550 1551 1551 1551 1551 1551 1551 1552 1552 1552 1552 1552 1552 1552 1552 1552 1552 1552
1530 1536 1535 1530 1526 1527 1531 1535 1532 1532 1532 1533 1534 1535 1536 1537 1539 1540 1541 1542 1544 1545 1546 1546 1547 1548 1549 1549 1550 1551 1551 1551 1551 1552 1552 1552 1552 1552 1553 1553 1553 1553 1553 1553 1553 1553 1553 1553 1553
1536 1535 1534 1533 1528 1529 1532 1533 1531 1531 1532 1533 1533 1534 1535 1537 1538 1539 1541 1542 1544 1545 1546 1546 1547 1548 1549 1549 1550 1551 1551 1552 1552 1552 1552 1553 1553 1553 1553 1553 1553 1553 1553 1554 1554 1554 1554 1554 1554
1528 1532 1534 1531 1526 1529 1533 1533 1531 1531 1532 1532 1533 1533 1534 1536 1538 1539 1541 1542 1543 1544 1545 1546 1547 1548 1549 1549 1550 1551 1551 1552 1552 1553 1553 1553 1553 1553 1554 1554 1554 1554 1554 1554 1554 1555 1555 1555 1555
1527 1532 1533 1529 1526 1529 1532 1532 1529 1529 1529 1529 1530 1531 1532 1534 1536 1538 1539 1541 1542 1544 1545 1546 1547 1548 1548 1549 1550 1551 1552 1552 1552 1553 1553 1553 1553 1554 1554 1554 1554 1554 1554 1554 1555 1555 1555 1555 1555
1528 1531 1531 1531 1529 1529 1532 1534 1530 1527 1527 1528 1529 1529 1531 1532 1534 1536 1538 1539 1541 1542 1544 1545 1546 1547 1548 1549 1550 1551 1551 1551 1552 1552 1552 1553 1553 1553 1554 1554 1554 1554 1555 1555 1555 1555 1555 1555 1556
1530 1523 1525 1528 1535 1540 1536 1547 1533 1528 1527 1525 1526 1527 1528 1530 1532 1534 1536 1537 1539 1541 1543 1544 1545 1547 1547 1548 1549 1550 1550 1550 1551 1551 1552 1552 1553 1553 1553 1554 1554 1554 1554 1555 1555 1555 1555 1555 1555
1523 1521 1524 1528 1534 1541 1539 1545 1538 1529 1528 1524 1522 1523 1524 1527 1529 1531 1533 1535 1537 1539 1541 1543 1544 1545 1546 1547 1548 1549 1549 1550 1550 1551 1551 1552 1552 1553 1553 1553 1554 1554 1554 1554 1554 1555 1555 1555 1555
1520 1524 1529 1535 1539 1549 1541 1545 1541 1532 1525 1520 1518 1519 1521 1524 1526 1529 1532 1534 1536 1538 1539 1541 1543 1544 1545 1546 1547 1548 1548 1549 1550 1550 1550 1551 1551 1552 1552 1552 1553 1553 1553 1554 1554 1554 1554 1554 1555
1522 1535 1549 1550 1556 1552 1540 1542 1538 1522 1518 1517 1516 1516 1518 1521 1524 1526 1529 1531 1533 1535 1537 1539 1541 1542 1543 1545 1546 1547 1547 1548 1549 1549 1550 1550 1550 1551 1551 1552 1552 1552 1553 1553 1553 1553 1553 1554 1553
1525 1531 1548 1556 1558 1552 1541 1543 1531 1519 1516 1514 1513 1514 1516 1519 1522 1524 1526 1529 1531 1533 1536 1537 1539 1540 1542 1543 1544 1545 1546 1547 1548 1548 1549 1549 1550 1550 1550 1551 1551 1552 1552 1552 1552 1552 1552 1552 1552
1526 1531 1531 1544 1547 1551 1546 1537 1525 1517 1516 1514 1514 1514 1515 1517 1520 1522 1525 1527 1529 1531 1534 1535 1537 1539 1540 1541 1542 1543 1544 1545 1546 1547 1547 1548 1548 1549 1549 1549 1550 1550 1550 1550 1551 1551 1551 1551 1551
1521 1527 1537 1543 1552 1556 1546 1541 1536 1522 1519 1516 1515 1515 1516 1517 1519 1521 1523 1525 1527 1530 1532 1534 1535 1537 1538 1539 1540 1541 1542 1543 1544 1545 1546 1546 1547 1547 1547 1548 1548 1549 1549 1549 1549 1550 1550 1550 1550
1526 1529 1534 1542 1544 1553 1555 1544 1522 1520 1517 1517 1515 1515 1515 1517 1518 1520 1522 1524 1526 1528 1530 1532 1533 1535 1536 1537 1538 1539 1540 1541 1542 1543 1543 1544 1544 1545 1545 1546 1546 1547 1547 1547 1547 1548 1548 1548 1549
1520 1524 1532 1541 1545 1547 1551 1543 1517 1516 1515 1515 1515 1515 1516 1517 1518 1520 1521 1523 1524 1526 1528 1530 1531 1533 1534 1535 1536 1537 1538 1539 1539 1540 1541 1541 1542 1542 1543 1544 1544 1545 1545 1545 1546 1546 1547 1547 1547